Погода в Вологде

Погода в Вологде : погода сейчас, прогноз погоды и архив. Всё, что Вы хотите узнать о погоде в Вологде!

Хотите узнать прогноз погоды в Вологде? Тогда Вам сюда: Погода в Вологде

Поиск расширенной информации на нашем сайте:

Другие новости

Новости СМИ2

Главная страница сайта

Новости сайта

03.07.2017

Напоминаем, что на нашем специализированном сайте Метеоцентр.Азия вы можете получить высокодетализированные автоматические прогнозы погоды по пунктам России, СНГ и мира в авиационном формате (включающие направление и скорость ветра, видимость, явления погоды, количество и форму облачности, нижнюю и верхнюю границу облачности).

Рекомендуем: эмалировка ванн

Погода в Вологде - сегодня

Время (UTC), дата Ветер
(°,м/с) 
Видим.   Явления Облачность Т
(°С)
Тd
(°С)
f(%) Тe
(°С)
Pmin
(гПа)
dP
(гПа)
Po
(мм)
O2
(г/м3)
Тmin Tmax R s Состояние
почвы
00 18.09.17 140 (ЮВ) 0500 м  туман  6/6 2000 м средняя 
[Ac trans]
+6.8 +5.9 94 +8  1017.4  -1  751  294           
03 18.09.17 130 (ЮВ) 0500 м  туман  9/9 2000 м средняя 
[Ac trans]
+6.9 +6 94 +7  1015.8  -1.5  750  294  +6.6        влажная 
06 18.09.17 130 (ЮВ) 4000 м  дымка{дождь, туман}  10/10 2000 м 
[Ac und]
+9.5 +8.9 96 +10  1014.1  -1.5  749  290           
09 18.09.17 110 (В) 10 км  слаб. дождь  10/10 300 м 
[Sc]
+10.7 +9.5 92 +11  1011.9  -2.2  747  288           
15 18.09.17 110 (В) 10 км  гроза, ливневой дождь  10/10 300 м кучево-дожд. 
[Cb cap]
+11.2 +10.3 94 +13  1005.9  -2.9  743  286    +11.2     
18 18.09.17 120 (ЮВ) 20000 м  {гроза, ливн. осадки}  10/10 270 м 
[Sc]
+12 +11.1 94 +15  1002.9  -2.9  741  284           
21 18.09.17 150 (ЮВ) 4000 м  дымка  10/10 240 м 
[St]
+13.1 +12.2 94 +19  1001.1  -1.7  739  282           
00 19.09.17 180 (Ю) 4000 м  дымка  10/10 240 м 
[St]
+12.8 +11.9 94 +17  1000.1  -1  739  282           
03 19.09.17 150 (ЮВ) 20000 м    9/9 720 м 
[Sc]
+11.3 +9.7 90 +12  999.5  -0.7  738  284  +11      влажная 
06 19.09.17 180 (Ю) 20000 м  {ливн. осадки}  9/9 300 м 
[Sc]
+11.9 +9.3 84 +13  999.4  -0.1  738  283           
09 19.09.17 180 (Ю) 10 км  слаб. дождь  10/10 270 м 
[Sc]
+11.5 +9.6 88 +12  1000.4  1.1  739  284           
12 19.09.17 190 (Ю) 10 км  слаб. дождь  10/8 300 м средняя 
[Frnb|As op]
+12.4 +11.1 92 +15  1001.8  1.4  740  283           
15 19.09.17 230 (ЮЗ) 20000 м  в посл. час дождь  9/9 300 м 
[Sc]
+12.9 +11.4 91 +16  1004.3  2.4  742  283    +12.9     
18 19.09.17 240 (ЮЗ) 20000 м  в посл. час дождь  10/10 360 м 
[Sc]
+12.2 +10.6 90 +14  1007.3  2.9  744  285           
21 19.09.17 260 (З) 20000 м  {дождь}  10/10 660 м 
[Sc]
+10.4 +8 85 +10  1010.6  3.2  746  288           
00 20.09.17 260 (З) 2{10}  20000 м  {дождь}  10/10 500 м 
[Sc]
+9.5 +7.4 87 +10  1013  2.3  748  290           
03 20.09.17 280 (З) 20000 м  в посл. час дождь  10/10 450 м 
[Sc]
+8.9 +6.5 85 +9  1015.6  2.5  750  291  +8.7    0.9    влажная 
06 20.09.17 290 (З) 20000 м  {дождь}  9/9 720 м 
[Sc]
+9 +5.9 81 +8  1018.7  3.1  752  292           
09 20.09.17 270 (З) 20000 м    9/9 960 м 
[Sc]
+12 +5.3 64 +12  1020.5  1.9  754  290           
12 20.09.17 250 (З) 20000 м    9/9 1200 м 
[Sc]
+13.1 +6.7 65 +14  1022.4  755  289           
15 20.09.17 350 (С) 20000 м    4/4 1000 м 
[Sc]
+10.6 +7.3 80 +12  1023.9  1.2  756  292    +13.7       
18 20.09.17 360 (С) 20000 м    4/4 1000 м 
[Sc]
+9 +8 93 +10  1025.6  1.7  757  294           
21 20.09.17 250 (З) 20000 м    6/6 1000 м 
[Sc]
+7.7 +6.8 94 +9  1027.2  1.5  758  296           
00 21.09.17 010 (С) 20000 м    8/8 800 м 
[Sc]
+7.7 +6.8 94 +9  1028.8  1.6  760  297           
03 21.09.17 030 (СВ) 0200 м  туман  ?/?  
+6.5 +5.6 94 +6  1030.5  1.6  761  299  +6.5        влажная 
Время (UTC), дата Ветер
(°,м/с) 
Видим.   Явления Облачность Т
(°С)
Тd
(°С)
f(%) Тe
(°С)
Pmin
(гПа)
dP
(гПа)
Po
(мм)
O2
(г/м3)
Тmin Tmax R s Состояние
почвы

Для получения пояснительной информации подведите курсор к названию столбца.

ПОГОДА в Вологде - архив

Всё, что Вы хотите узнать о погоде в Вологде - удобно и подробно!

Выберите нужную дату (начиная с 1 января 2015* года) и нажмите кнопку "Найти".
Будут отображены архивные сводки погоды по пункту Вологда, начиная с указанной даты.


Отображать данные в формате CSV (для использования в таблицах Excel)


Внимание! Наш архив погоды предназначен исключительно для личного некоммерческого использования в познавательных целях. Если Вам необходимы официальные справки о состоянии погоды (для производственных, юридических, коммерческих и т.п. целей), обращайтесь в органы Росгидромета.

*Примечание: данная дата относится к архиву по метеостанциям СССР (Россия, СНГ, Балтия).
Архив по метеостанциям Зарубежной Европы и Азии (кроме Китая) хранится 10 дней, по другим регионам земного шара (Китай, Африка, Америка, Австралия, Океания) - 1 день.

Вологда - район местоположения метеостанции


Название, широта, долгота, высота метеостанции:
Вологда (город) 59.3°ш. 39.9°д. 130 м над ур. моря [Российская Федерация]

Дополнительная информация

В oтличие oт бoльшинства пoгoдных сайтoв мы публикуем пoдрoбную метеoинфoрмацию в детальнoм прoфессиoнальнoм фoрмате.

Характеристики температуры и влажнoсти вoздуха измеряются на высoте 2 м в тени вдали oт зданий и деревьев.
Скoрoсть ветра измеряется на высoте 10 м (на урoвне рoста челoвека скoрoсть ветра ниже в 1.5-2 раза). Если метеoстанция нахoдится в гoрoде или в лесу, тo скoрoсть ветра занижена на 2-4 м/с пo сравнению с oткрытым местoм. Скoрoсть ветра над акватoриями крупных рек и oзёр, а также на вершинах хoлмoв на 2-5 м/с выше, чем в oбычных услoвиях.
Атмoсфернoе давление в разных тoчках местнoсти мoжет значительнo oтличаться oт давления на метеoстанции, в зависимoсти oт услoвий рельефа (при пoдъёме на 10 м давление пoнижается примернo на 1 мм рт.ст.).